Location: Recife
(8.0585°S, 34.8848°W)
Time: 11:00:24
(UTC-03:00)

Courier 1B Rocket - Pass Details

Date: 18 April 2026
Orbit: 920 x 1201 km, 28.2° (Epoch: 13 May)

Event Time Altitude Azimuth Distance (km) Brightness Sun altitude
Rises 07:23:58 0° 239° (WSW) 3,687 7.5 28.6°
Reaches altitude 10° 07:28:11 10° 213° (SSW) 2,800 7.1 29.6°
Maximum altitude 07:31:29 14° 184° (S) 2,578 7.1 30.3°
Drops below altitude 10° 07:34:53 10° 155° (SSE) 2,904 7.7 31.1°
Sets 07:39:26 0° 130° (SE) 3,930 8.5 32.2°
